Time,TemperatureF,DewpointF,PressureIn,WindDirection,WindDirectionDegrees,WindSpeedMPH,WindSpeedGustMPH,Humidity,HourlyPrecipIn,Conditions,Clouds,dailyrainin,SoftwareType,DateUTC
2013-06-19 00:05:00,58.9,48.4,30.04,ENE,69,7.0,8.0,68,0.00,,,0.00,Wunderground v.1.15,2013-06-19 05:05:00,
2013-06-19 00:10:00,58.7,48.6,30.05,ENE,60,6.0,7.0,69,0.00,,,0.00,Wunderground v.1.15,2013-06-19 05:10:00,
2013-06-19 00:16:00,58.6,48.1,30.04,NE,56,6.0,8.0,68,0.00,,,0.00,Wunderground v.1.15,2013-06-19 05:16:00,
2013-06-19 00:21:00,58.6,48.5,30.05,NE,51,6.0,6.0,69,0.00,,,0.00,Wunderground v.1.15,2013-06-19 05:21:00,
2013-06-19 00:27:00,58.3,48.2,30.05,NE,53,5.0,7.0,69,0.00,,,0.00,Wunderground v.1.15,2013-06-19 05:27:00,
2013-06-19 00:33:00,57.9,48.2,30.05,ENE,57,4.0,5.0,70,0.00,,,0.00,Wunderground v.1.15,2013-06-19 05:33:00,
2013-06-19 00:39:00,57.6,48.3,30.05,NE,55,5.0,8.0,71,0.00,,,0.00,Wunderground v.1.15,2013-06-19 05:39:00,
2013-06-19 00:45:00,57.2,47.9,30.05,ENE,58,5.0,7.0,71,0.00,,,0.00,Wunderground v.1.15,2013-06-19 05:45:00,
2013-06-19 00:50:00,57.1,48.2,30.05,NE,53,6.0,6.0,72,0.00,,,0.00,Wunderground v.1.15,2013-06-19 05:50:00,
2013-06-19 00:55:00,56.9,48.3,30.05,NE,53,6.0,7.0,73,0.00,,,0.00,Wunderground v.1.15,2013-06-19 05:55:00,
2013-06-19 01:01:00,56.8,47.9,30.05,ENE,57,6.0,9.0,72,0.00,,,0.00,Wunderground v.1.15,2013-06-19 06:01:00,
2013-06-19 01:07:00,56.7,47.8,30.05,NE,54,6.0,9.0,72,0.00,,,0.00,Wunderground v.1.15,2013-06-19 06:07:00,
2013-06-19 01:12:00,56.6,47.7,30.06,NE,42,5.0,5.0,72,0.00,,,0.00,Wunderground v.1.15,2013-06-19 06:12:00,
2013-06-19 01:18:00,56.4,47.9,30.06,NE,50,5.0,6.0,73,0.00,,,0.00,Wunderground v.1.15,2013-06-19 06:18:00,
2013-06-19 01:24:00,56.3,47.8,30.06,NE,56,5.0,7.0,73,0.00,,,0.00,Wunderground v.1.15,2013-06-19 06:24:00,
2013-06-19 01:30:00,56.2,48.0,30.06,NE,45,5.0,6.0,74,0.00,,,0.00,Wunderground v.1.15,2013-06-19 06:30:00,
2013-06-19 01:35:00,55.9,48.1,30.06,NE,51,6.0,7.0,75,0.00,,,0.00,Wunderground v.1.15,2013-06-19 06:35:00,
2013-06-19 01:41:00,55.7,47.9,30.06,NE,43,6.0,7.0,75,0.00,,,0.00,Wunderground v.1.15,2013-06-19 06:41:00,
2013-06-19 01:46:00,55.6,48.2,30.06,NE,48,6.0,8.0,76,0.00,,,0.00,Wunderground v.1.15,2013-06-19 06:46:00,
2013-06-19 01:52:00,55.6,48.2,30.05,NE,47,6.0,6.0,76,0.00,,,0.00,Wunderground v.1.15,2013-06-19 06:52:00,
2013-06-19 01:58:00,55.6,48.2,30.05,NE,53,6.0,6.0,76,0.00,,,0.00,Wunderground v.1.15,2013-06-19 06:58:00,
2013-06-19 02:04:00,55.5,48.1,30.05,ENE,62,5.0,8.0,76,0.00,,,0.00,Wunderground v.1.15,2013-06-19 07:04:00,
2013-06-19 02:10:00,55.6,47.8,30.05,ENE,62,5.0,5.0,75,0.00,,,0.00,Wunderground v.1.15,2013-06-19 07:10:00,
2013-06-19 02:16:00,55.5,47.7,30.06,ENE,60,5.0,7.0,75,0.00,,,0.00,Wunderground v.1.15,2013-06-19 07:16:00,
2013-06-19 02:21:00,55.5,48.1,30.06,NE,48,5.0,8.0,76,0.00,,,0.00,Wunderground v.1.15,2013-06-19 07:21:00,
2013-06-19 02:27:00,55.3,47.9,30.06,NE,52,4.0,8.0,76,0.00,,,0.00,Wunderground v.1.15,2013-06-19 07:27:00,
2013-06-19 02:33:00,55.1,47.7,30.06,NE,54,4.0,5.0,76,0.00,,,0.00,Wunderground v.1.15,2013-06-19 07:33:00,
2013-06-19 02:39:00,55.0,47.6,30.06,NE,49,4.0,5.0,76,0.00,,,0.00,Wunderground v.1.15,2013-06-19 07:39:00,
2013-06-19 02:45:00,54.9,47.8,30.05,NE,46,5.0,6.0,77,0.00,,,0.00,Wunderground v.1.15,2013-06-19 07:45:00,
2013-06-19 02:50:00,54.7,47.6,30.06,NE,49,5.0,5.0,77,0.00,,,0.00,Wunderground v.1.15,2013-06-19 07:50:00,
2013-06-19 02:56:00,54.7,47.6,30.06,NE,49,6.0,9.0,77,0.00,,,0.00,Wunderground v.1.15,2013-06-19 07:56:00,
2013-06-19 03:02:00,54.8,47.4,30.06,NE,44,6.0,7.0,76,0.00,,,0.00,Wunderground v.1.15,2013-06-19 08:02:00,
2013-06-19 03:08:00,54.8,47.4,30.06,NE,44,6.0,8.0,76,0.00,,,0.00,Wunderground v.1.15,2013-06-19 08:08:00,
2013-06-19 03:14:00,54.8,47.4,30.06,NE,45,6.0,8.0,76,0.00,,,0.00,Wunderground v.1.15,2013-06-19 08:14:00,
2013-06-19 03:19:00,54.7,47.3,30.06,NE,49,5.0,8.0,76,0.00,,,0.00,Wunderground v.1.15,2013-06-19 08:19:00,
2013-06-19 03:25:00,54.5,47.4,30.06,NE,45,5.0,6.0,77,0.00,,,0.00,Wunderground v.1.15,2013-06-19 08:25:00,
2013-06-19 03:31:00,54.5,47.4,30.06,NE,48,5.0,5.0,77,0.00,,,0.00,Wunderground v.1.15,2013-06-19 08:31:00,
2013-06-19 03:36:00,54.5,47.4,30.06,NE,52,5.0,5.0,77,0.00,,,0.00,Wunderground v.1.15,2013-06-19 08:36:00,
2013-06-19 03:42:00,54.5,47.4,30.06,NE,50,5.0,5.0,77,0.00,,,0.00,Wunderground v.1.15,2013-06-19 08:42:00,
2013-06-19 03:48:00,54.4,47.0,30.06,NE,47,4.0,5.0,76,0.00,,,0.00,Wunderground v.1.15,2013-06-19 08:48:00,
2013-06-19 03:54:00,54.4,47.3,30.06,NE,51,5.0,8.0,77,0.00,,,0.00,Wunderground v.1.15,2013-06-19 08:54:00,
2013-06-19 04:00:00,54.3,47.2,30.06,NE,44,5.0,5.0,77,0.00,,,0.00,Wunderground v.1.15,2013-06-19 09:00:00,
2013-06-19 04:06:00,54.3,47.2,30.07,NE,49,5.0,6.0,77,0.00,,,0.00,Wunderground v.1.15,2013-06-19 09:06:00,
2013-06-19 04:12:00,54.2,47.1,30.07,NE,46,5.0,6.0,77,0.00,,,0.00,Wunderground v.1.15,2013-06-19 09:12:00,
2013-06-19 04:18:00,54.1,47.4,30.07,NE,48,5.0,7.0,78,0.00,,,0.00,Wunderground v.1.15,2013-06-19 09:18:00,
2013-06-19 04:24:00,53.9,47.2,30.07,NE,44,5.0,6.0,78,0.00,,,0.00,Wunderground v.1.15,2013-06-19 09:24:00,
2013-06-19 04:30:00,53.9,47.2,30.07,NE,45,4.0,4.0,78,0.00,,,0.00,Wunderground v.1.15,2013-06-19 09:30:00,
2013-06-19 04:36:00,53.7,47.3,30.07,NE,46,4.0,5.0,79,0.00,,,0.00,Wunderground v.1.15,2013-06-19 09:36:00,
2013-06-19 04:42:00,53.6,47.2,30.07,NE,51,5.0,7.0,79,0.00,,,0.00,Wunderground v.1.15,2013-06-19 09:42:00,
2013-06-19 04:47:00,53.4,47.4,30.07,NE,42,5.0,7.0,80,0.00,,,0.00,Wunderground v.1.15,2013-06-19 09:47:00,
2013-06-19 04:53:00,53.4,47.4,30.07,NE,48,5.0,7.0,80,0.00,,,0.00,Wunderground v.1.15,2013-06-19 09:53:00,
2013-06-19 04:59:00,53.3,47.3,30.07,NE,44,6.0,7.0,80,0.00,,,0.00,Wunderground v.1.15,2013-06-19 09:59:00,
2013-06-19 05:05:00,53.1,47.1,30.07,NE,46,6.0,8.0,80,0.00,,,0.00,Wunderground v.1.15,2013-06-19 10:05:00,
2013-06-19 05:11:00,53.1,47.1,30.07,NE,50,6.0,6.0,80,0.00,,,0.00,Wunderground v.1.15,2013-06-19 10:11:00,
2013-06-19 05:17:00,52.8,47.1,30.07,NE,43,6.0,7.0,81,0.00,,,0.00,Wunderground v.1.15,2013-06-19 10:17:00,
2013-06-19 05:23:00,52.9,47.2,30.07,NE,49,6.0,8.0,81,0.00,,,0.00,Wunderground v.1.15,2013-06-19 10:23:00,
2013-06-19 05:29:00,53.0,47.3,30.07,ENE,58,6.0,8.0,81,0.00,,,0.00,Wunderground v.1.15,2013-06-19 10:29:00,
2013-06-19 05:35:00,53.1,47.4,30.08,NE,51,5.0,6.0,81,0.00,,,0.00,Wunderground v.1.15,2013-06-19 10:35:00,
2013-06-19 05:40:00,53.1,47.4,30.08,NE,44,5.0,5.0,81,0.00,,,0.00,Wunderground v.1.15,2013-06-19 10:40:00,
2013-06-19 05:46:00,53.0,47.7,30.08,NE,46,4.0,6.0,82,0.00,,,0.00,Wunderground v.1.15,2013-06-19 10:46:00,
2013-06-19 05:51:00,53.1,47.7,30.08,NE,50,4.0,5.0,82,0.00,,,0.00,Wunderground v.1.15,2013-06-19 10:51:00,
2013-06-19 05:57:00,53.5,47.8,30.08,NE,51,5.0,8.0,81,0.00,,,0.00,Wunderground v.1.15,2013-06-19 10:57:00,
2013-06-19 06:03:00,53.9,47.9,30.09,NE,51,6.0,6.0,80,0.00,,,0.00,Wunderground v.1.15,2013-06-19 11:03:00,
2013-06-19 06:09:00,54.3,48.3,30.09,NE,53,5.0,6.0,80,0.00,,,0.00,Wunderground v.1.15,2013-06-19 11:09:00,
2013-06-19 06:15:00,54.7,48.3,30.09,NE,46,4.0,6.0,79,0.00,,,0.00,Wunderground v.1.15,2013-06-19 11:15:00,
2013-06-19 06:21:00,55.0,48.9,30.09,NE,51,4.0,6.0,80,0.00,,,0.00,Wunderground v.1.15,2013-06-19 11:21:00,
2013-06-19 06:27:00,55.4,49.0,30.09,ENE,63,4.0,6.0,79,0.00,,,0.00,Wunderground v.1.15,2013-06-19 11:27:00,
2013-06-19 06:33:00,55.7,48.9,30.10,ENE,59,4.0,7.0,78,0.00,,,0.00,Wunderground v.1.15,2013-06-19 11:33:00,
2013-06-19 06:38:00,56.2,49.4,30.09,ENE,58,4.0,7.0,78,0.00,,,0.00,Wunderground v.1.15,2013-06-19 11:38:00,
2013-06-19 06:44:00,56.5,49.4,30.09,ENE,71,5.0,7.0,77,0.00,,,0.00,Wunderground v.1.15,2013-06-19 11:44:00,
2013-06-19 06:50:00,56.7,49.2,30.09,ENE,66,6.0,8.0,76,0.00,,,0.00,Wunderground v.1.15,2013-06-19 11:50:00,
2013-06-19 06:56:00,57.1,50.0,30.10,ENE,74,5.0,8.0,77,0.00,,,0.00,Wunderground v.1.15,2013-06-19 11:56:00,
2013-06-19 07:01:00,57.5,50.0,30.10,ENE,71,4.0,5.0,76,0.00,,,0.00,Wunderground v.1.15,2013-06-19 12:01:00,
2013-06-19 07:07:00,57.8,50.3,30.10,ENE,57,5.0,7.0,76,0.00,,,0.00,Wunderground v.1.15,2013-06-19 12:07:00,
2013-06-19 07:13:00,58.2,50.3,30.10,ENE,78,6.0,7.0,75,0.00,,,0.00,Wunderground v.1.15,2013-06-19 12:13:00,
2013-06-19 07:18:00,58.5,50.2,30.10,East,79,6.0,8.0,74,0.00,,,0.00,Wunderground v.1.15,2013-06-19 12:18:00,
2013-06-19 07:24:00,59.1,50.8,30.10,East,84,5.0,7.0,74,0.00,,,0.00,Wunderground v.1.15,2013-06-19 12:24:00,
2013-06-19 07:30:00,59.5,51.6,30.10,East,86,6.0,6.0,75,0.00,,,0.00,Wunderground v.1.15,2013-06-19 12:30:00,
2013-06-19 07:36:00,59.8,51.5,30.10,East,81,6.0,9.0,74,0.00,,,0.00,Wunderground v.1.15,2013-06-19 12:36:00,
2013-06-19 07:41:00,60.0,51.3,30.10,ENE,71,6.0,6.0,73,0.00,,,0.00,Wunderground v.1.15,2013-06-19 12:41:00,
2013-06-19 07:47:00,60.5,52.2,30.10,East,86,6.0,8.0,74,0.00,,,0.00,Wunderground v.1.15,2013-06-19 12:47:00,
2013-06-19 07:53:00,60.8,52.1,30.10,East,94,6.0,9.0,73,0.00,,,0.00,Wunderground v.1.15,2013-06-19 12:53:00,
2013-06-19 07:59:00,61.1,52.4,30.10,ENE,67,7.0,9.0,73,0.00,,,0.00,Wunderground v.1.15,2013-06-19 12:59:00,
2013-06-19 08:05:00,61.6,52.9,30.10,ENE,76,7.0,9.0,73,0.00,,,0.00,Wunderground v.1.15,2013-06-19 13:05:00,
2013-06-19 08:11:00,62.1,53.0,30.10,East,86,6.0,7.0,72,0.00,,,0.00,Wunderground v.1.15,2013-06-19 13:11:00,
2013-06-19 08:17:00,62.7,53.2,30.09,East,97,6.0,8.0,71,0.00,,,0.00,Wunderground v.1.15,2013-06-19 13:17:00,
2013-06-19 08:23:00,63.4,54.2,30.10,East,87,6.0,9.0,72,0.00,,,0.00,Wunderground v.1.15,2013-06-19 13:23:00,
2013-06-19 08:28:00,64.1,54.9,30.10,ESE,108,4.0,9.0,72,0.00,,,0.00,Wunderground v.1.15,2013-06-19 13:28:00,
2013-06-19 08:34:00,64.5,54.9,30.10,East,100,4.0,10.0,71,0.00,,,0.00,Wunderground v.1.15,2013-06-19 13:34:00,
2013-06-19 08:40:00,64.9,54.5,30.10,ENE,78,5.0,8.0,69,0.00,,,0.00,Wunderground v.1.15,2013-06-19 13:40:00,
2013-06-19 08:46:00,65.4,55.7,30.10,East,84,6.0,9.0,71,0.00,,,0.00,Wunderground v.1.15,2013-06-19 13:46:00,
2013-06-19 08:51:00,66.0,56.7,30.10,ESE,107,5.0,6.0,72,0.00,,,0.00,Wunderground v.1.15,2013-06-19 13:51:00,
2013-06-19 08:57:00,66.2,56.5,30.10,ESE,105,4.0,7.0,71,0.00,,,0.00,Wunderground v.1.15,2013-06-19 13:57:00,
2013-06-19 09:04:00,66.5,55.6,30.11,East,88,4.0,9.0,68,0.00,,,0.00,Wunderground v.1.15,2013-06-19 14:04:00,
2013-06-19 09:10:00,66.7,56.2,30.11,East,85,6.0,6.0,69,0.00,,,0.00,Wunderground v.1.15,2013-06-19 14:10:00,
2013-06-19 09:16:00,66.9,56.8,30.11,East,88,6.0,8.0,70,0.00,,,0.00,Wunderground v.1.15,2013-06-19 14:16:00,
2013-06-19 09:22:00,67.6,57.1,30.11,East,79,4.0,8.0,69,0.00,,,0.00,Wunderground v.1.15,2013-06-19 14:22:00,
2013-06-19 09:27:00,68.2,58.0,30.11,ESE,123,4.0,8.0,70,0.00,,,0.00,Wunderground v.1.15,2013-06-19 14:27:00,
2013-06-19 09:33:00,68.5,57.9,30.11,ESE,119,3.0,3.0,69,0.00,,,0.00,Wunderground v.1.15,2013-06-19 14:33:00,
2013-06-19 09:38:00,68.8,57.8,30.11,ESE,121,2.0,3.0,68,0.00,,,0.00,Wunderground v.1.15,2013-06-19 14:38:00,
2013-06-19 09:44:00,69.4,58.8,30.11,South,173,2.0,5.0,69,0.00,,,0.00,Wunderground v.1.15,2013-06-19 14:44:00,
2013-06-19 09:49:00,69.8,59.2,30.11,South,186,1.0,5.0,69,0.00,,,0.00,Wunderground v.1.15,2013-06-19 14:49:00,
2013-06-19 09:55:00,70.3,60.1,30.10,SE,126,2.0,7.0,70,0.00,,,0.00,Wunderground v.1.15,2013-06-19 14:55:00,
2013-06-19 10:01:00,70.2,59.1,30.10,East,86,4.0,5.0,68,0.00,,,0.00,Wunderground v.1.15,2013-06-19 15:01:00,
2013-06-19 10:07:00,70.5,59.8,30.09,East,99,4.0,6.0,69,0.00,,,0.00,Wunderground v.1.15,2013-06-19 15:07:00,
2013-06-19 10:13:00,70.6,60.7,30.10,SE,128,3.0,7.0,71,0.00,,,0.00,Wunderground v.1.15,2013-06-19 15:13:00,
2013-06-19 10:18:00,70.8,58.9,30.09,ESE,112,3.0,7.0,66,0.00,,,0.00,Wunderground v.1.15,2013-06-19 15:18:00,
2013-06-19 10:24:00,70.9,60.2,30.10,ESE,123,3.0,6.0,69,0.00,,,0.00,Wunderground v.1.15,2013-06-19 15:24:00,
2013-06-19 10:29:00,71.5,60.8,30.10,South,173,3.0,6.0,69,0.00,,,0.00,Wunderground v.1.15,2013-06-19 15:29:00,
2013-06-19 10:35:00,71.9,59.9,30.09,SE,130,2.0,3.0,66,0.00,,,0.00,Wunderground v.1.15,2013-06-19 15:35:00,
2013-06-19 10:40:00,72.3,60.7,30.09,South,169,2.0,2.0,67,0.00,,,0.00,Wunderground v.1.15,2013-06-19 15:40:00,
2013-06-19 10:46:00,72.8,62.0,30.09,SSE,152,3.0,6.0,69,0.00,,,0.00,Wunderground v.1.15,2013-06-19 15:46:00,
2013-06-19 10:52:00,72.7,60.7,30.09,SSE,149,3.0,3.0,66,0.00,,,0.00,Wunderground v.1.15,2013-06-19 15:52:00,
2013-06-19 10:57:00,72.6,60.6,30.09,East,82,2.0,6.0,66,0.00,,,0.00,Wunderground v.1.15,2013-06-19 15:57:00,
2013-06-19 11:03:00,72.9,62.5,30.09,East,96,2.0,2.0,70,0.00,,,0.00,Wunderground v.1.15,2013-06-19 16:03:00,
2013-06-19 11:08:00,73.5,61.4,30.09,ESE,110,1.0,3.0,66,0.00,,,0.00,Wunderground v.1.15,2013-06-19 16:08:00,
2013-06-19 11:13:00,73.5,60.6,30.09,ESE,111,1.0,2.0,64,0.00,,,0.00,Wunderground v.1.15,2013-06-19 16:13:00,
2013-06-19 11:19:00,73.9,61.4,30.09,SSE,165,1.0,3.0,65,0.00,,,0.00,Wunderground v.1.15,2013-06-19 16:19:00,
2013-06-19 11:25:00,74.0,62.8,30.09,East,87,2.0,3.0,68,0.00,,,0.00,Wunderground v.1.15,2013-06-19 16:25:00,
2013-06-19 11:30:00,74.0,60.6,30.09,East,94,3.0,5.0,63,0.00,,,0.00,Wunderground v.1.15,2013-06-19 16:30:00,
2013-06-19 11:36:00,73.9,60.1,30.08,East,90,4.0,7.0,62,0.00,,,0.00,Wunderground v.1.15,2013-06-19 16:36:00,
2013-06-19 11:41:00,73.9,60.5,30.08,NE,51,3.0,4.0,63,0.00,,,0.00,Wunderground v.1.15,2013-06-19 16:41:00,
2013-06-19 11:47:00,74.0,61.5,30.08,South,177,2.0,5.0,65,0.00,,,0.00,Wunderground v.1.15,2013-06-19 16:47:00,
2013-06-19 11:52:00,74.8,63.5,30.08,SSW,206,2.0,7.0,68,0.00,,,0.00,Wunderground v.1.15,2013-06-19 16:52:00,
2013-06-19 11:58:00,75.2,59.9,30.08,SE,142,2.0,7.0,59,0.00,,,0.00,Wunderground v.1.15,2013-06-19 16:58:00,
2013-06-19 12:03:00,75.3,59.5,30.08,ENE,69,2.0,3.0,58,0.00,,,0.00,Wunderground v.1.15,2013-06-19 17:03:00,
2013-06-19 12:09:00,75.0,60.6,30.08,SE,146,2.0,3.0,61,0.00,,,0.00,Wunderground v.1.15,2013-06-19 17:09:00,
2013-06-19 12:15:00,75.2,62.6,30.08,SSE,165,2.0,4.0,65,0.00,,,0.00,Wunderground v.1.15,2013-06-19 17:15:00,
2013-06-19 12:20:00,75.3,60.0,30.07,SSE,148,2.0,2.0,59,0.00,,,0.00,Wunderground v.1.15,2013-06-19 17:20:00,
2013-06-19 12:26:00,75.4,59.6,30.08,South,177,2.0,6.0,58,0.00,,,0.00,Wunderground v.1.15,2013-06-19 17:26:00,
2013-06-19 12:31:00,75.6,60.3,30.07,East,88,2.0,3.0,59,0.00,,,0.00,Wunderground v.1.15,2013-06-19 17:31:00,
2013-06-19 12:37:00,75.9,59.6,30.07,WSW,252,1.0,5.0,57,0.00,,,0.00,Wunderground v.1.15,2013-06-19 17:37:00,
2013-06-19 12:43:00,75.9,60.1,30.07,East,85,3.0,8.0,58,0.00,,,0.00,Wunderground v.1.15,2013-06-19 17:43:00,
2013-06-19 12:48:00,75.7,58.9,30.07,NE,53,4.0,8.0,56,0.00,,,0.00,Wunderground v.1.15,2013-06-19 17:48:00,
2013-06-19 12:53:00,75.8,59.5,30.06,SSE,155,3.0,4.0,57,0.00,,,0.00,Wunderground v.1.15,2013-06-19 17:53:00,
2013-06-19 12:59:00,76.1,60.7,30.06,SE,140,2.0,4.0,59,0.00,,,0.00,Wunderground v.1.15,2013-06-19 17:59:00,
2013-06-19 13:05:00,76.4,59.5,30.06,East,88,2.0,3.0,56,0.00,,,0.00,Wunderground v.1.15,2013-06-19 18:05:00,
2013-06-19 13:10:00,76.5,60.1,30.06,NE,43,3.0,6.0,57,0.00,,,0.00,Wunderground v.1.15,2013-06-19 18:10:00,
2013-06-19 13:16:00,76.8,60.4,30.06,NE,45,4.0,6.0,57,0.00,,,0.00,Wunderground v.1.15,2013-06-19 18:16:00,
2013-06-19 13:21:00,77.1,58.6,30.05,South,180,2.0,3.0,53,0.00,,,0.00,Wunderground v.1.15,2013-06-19 18:21:00,
2013-06-19 13:27:00,77.7,59.2,30.05,South,172,3.0,6.0,53,0.00,,,0.00,Wunderground v.1.15,2013-06-19 18:27:00,
2013-06-19 13:32:00,78.1,58.5,30.05,South,172,2.0,2.0,51,0.00,,,0.00,Wunderground v.1.15,2013-06-19 18:32:00,
2013-06-19 13:38:00,77.9,58.3,30.05,SE,130,2.0,3.0,51,0.00,,,0.00,Wunderground v.1.15,2013-06-19 18:38:00,
2013-06-19 13:44:00,78.0,60.0,30.05,SSW,194,4.0,7.0,54,0.00,,,0.00,Wunderground v.1.15,2013-06-19 18:44:00,
2013-06-19 13:50:00,77.8,60.8,30.05,SSW,212,5.0,5.0,56,0.00,,,0.00,Wunderground v.1.15,2013-06-19 18:50:00,
2013-06-19 13:55:00,78.4,63.4,30.05,SSW,196,5.0,7.0,60,0.00,,,0.00,Wunderground v.1.15,2013-06-19 18:55:00,
2013-06-19 14:01:00,78.4,58.2,30.05,East,85,4.0,4.0,50,0.00,,,0.00,Wunderground v.1.15,2013-06-19 19:01:00,
2013-06-19 14:07:00,78.3,59.8,30.05,East,86,3.0,6.0,53,0.00,,,0.00,Wunderground v.1.15,2013-06-19 19:07:00,
2013-06-19 14:12:00,78.5,62.0,30.04,NW,311,2.0,5.0,57,0.00,,,0.00,Wunderground v.1.15,2013-06-19 19:12:00,
2013-06-19 14:18:00,78.3,59.2,30.04,NW,311,1.0,5.0,52,0.00,,,0.00,Wunderground v.1.15,2013-06-19 19:18:00,
2013-06-19 14:23:00,78.8,61.3,30.04,ESE,112,1.0,5.0,55,0.00,,,0.00,Wunderground v.1.15,2013-06-19 19:23:00,
2013-06-19 14:29:00,78.5,57.7,30.04,SE,138,3.0,7.0,49,0.00,,,0.00,Wunderground v.1.15,2013-06-19 19:29:00,
2013-06-19 14:35:00,78.5,58.9,30.04,South,178,3.0,4.0,51,0.00,,,0.00,Wunderground v.1.15,2013-06-19 19:35:00,
2013-06-19 14:40:00,78.9,58.7,30.04,SSW,198,2.0,2.0,50,0.00,,,0.00,Wunderground v.1.15,2013-06-19 19:40:00,
2013-06-19 14:46:00,79.4,58.0,30.04,SSW,198,0.0,2.0,48,0.00,,,0.00,Wunderground v.1.15,2013-06-19 19:46:00,
2013-06-19 14:52:00,79.9,59.6,30.04,WSW,248,2.0,3.0,50,0.00,,,0.00,Wunderground v.1.15,2013-06-19 19:52:00,
2013-06-19 14:57:00,79.4,57.4,30.04,WSW,248,2.0,3.0,47,0.00,,,0.00,Wunderground v.1.15,2013-06-19 19:57:00,
2013-06-19 15:03:00,79.1,57.1,30.04,NNW,342,2.0,4.0,47,0.00,,,0.00,Wunderground v.1.15,2013-06-19 20:03:00,
2013-06-19 15:09:00,79.3,59.0,30.03,NW,313,2.0,4.0,50,0.00,,,0.00,Wunderground v.1.15,2013-06-19 20:09:00,
2013-06-19 15:15:00,79.9,60.7,30.03,WSW,241,1.0,5.0,52,0.00,,,0.00,Wunderground v.1.15,2013-06-19 20:15:00,
2013-06-19 15:20:00,80.2,58.1,30.03,East,80,2.0,6.0,47,0.00,,,0.00,Wunderground v.1.15,2013-06-19 20:20:00,
2013-06-19 15:26:00,79.9,58.5,30.03,SE,146,4.0,7.0,48,0.00,,,0.00,Wunderground v.1.15,2013-06-19 20:26:00,
2013-06-19 15:31:00,80.0,60.8,30.03,SW,231,4.0,4.0,52,0.00,,,0.00,Wunderground v.1.15,2013-06-19 20:31:00,
2013-06-19 15:37:00,80.6,60.8,30.02,SW,221,2.0,4.0,51,0.00,,,0.00,Wunderground v.1.15,2013-06-19 20:37:00,
2013-06-19 15:43:00,81.2,59.6,30.03,South,183,3.0,6.0,48,0.00,,,0.00,Wunderground v.1.15,2013-06-19 20:43:00,
2013-06-19 15:49:00,81.6,59.4,30.03,WNW,285,2.0,6.0,47,0.00,,,0.00,Wunderground v.1.15,2013-06-19 20:49:00,
2013-06-19 15:55:00,80.9,58.2,30.03,West,277,1.0,5.0,46,0.00,,,0.00,Wunderground v.1.15,2013-06-19 20:55:00,
2013-06-19 16:01:00,80.9,59.4,30.03,West,277,1.0,2.0,48,0.00,,,0.00,Wunderground v.1.15,2013-06-19 21:01:00,
2013-06-19 16:06:00,81.3,59.1,30.02,SSE,163,2.0,6.0,47,0.00,,,0.00,Wunderground v.1.15,2013-06-19 21:06:00,
2013-06-19 16:11:00,81.4,60.4,30.02,South,188,3.0,3.0,49,0.00,,,0.00,Wunderground v.1.15,2013-06-19 21:11:00,
2013-06-19 16:17:00,82.0,59.2,30.02,South,188,1.0,3.0,46,0.00,,,0.00,Wunderground v.1.15,2013-06-19 21:17:00,
2013-06-19 16:23:00,82.4,58.9,30.02,WNW,287,1.0,1.0,45,0.00,,,0.00,Wunderground v.1.15,2013-06-19 21:23:00,
2013-06-19 16:28:00,81.9,57.2,30.02,NNE,19,2.0,4.0,43,0.00,,,0.00,Wunderground v.1.15,2013-06-19 21:28:00,
2013-06-19 16:34:00,81.4,61.0,30.02,NNE,16,4.0,6.0,50,0.00,,,0.00,Wunderground v.1.15,2013-06-19 21:34:00,
2013-06-19 16:40:00,80.7,60.3,30.02,NNE,32,5.0,5.0,50,0.00,,,0.00,Wunderground v.1.15,2013-06-19 21:40:00,
2013-06-19 16:46:00,81.0,59.5,30.02,NNE,32,2.0,5.0,48,0.00,,,0.00,Wunderground v.1.15,2013-06-19 21:46:00,
2013-06-19 16:51:00,81.5,59.9,30.02,SSE,155,1.0,1.0,48,0.00,,,0.00,Wunderground v.1.15,2013-06-19 21:51:00,
2013-06-19 16:57:00,81.4,59.8,30.02,SE,130,1.0,3.0,48,0.00,,,0.00,Wunderground v.1.15,2013-06-19 21:57:00,
2013-06-19 17:03:00,81.0,60.6,30.02,ESE,102,1.0,2.0,50,0.00,,,0.00,Wunderground v.1.15,2013-06-19 22:03:00,
2013-06-19 17:08:00,81.3,59.7,30.02,South,171,2.0,5.0,48,0.00,,,0.00,Wunderground v.1.15,2013-06-19 22:08:00,
2013-06-19 17:14:00,80.9,59.9,30.01,SE,139,2.0,3.0,49,0.00,,,0.00,Wunderground v.1.15,2013-06-19 22:14:00,
2013-06-19 17:20:00,80.9,61.1,30.01,SE,140,1.0,2.0,51,0.00,,,0.00,Wunderground v.1.15,2013-06-19 22:20:00,
2013-06-19 17:25:00,80.3,57.6,30.01,ENE,78,2.0,4.0,46,0.00,,,0.00,Wunderground v.1.15,2013-06-19 22:25:00,
2013-06-19 17:31:00,80.2,57.5,30.01,NE,49,3.0,3.0,46,0.00,,,0.00,Wunderground v.1.15,2013-06-19 22:31:00,
2013-06-19 17:36:00,80.5,58.4,30.01,ESE,109,2.0,4.0,47,0.00,,,0.00,Wunderground v.1.15,2013-06-19 22:36:00,
2013-06-19 17:42:00,80.4,60.1,30.01,ESE,108,1.0,3.0,50,0.00,,,0.00,Wunderground v.1.15,2013-06-19 22:42:00,
2013-06-19 17:48:00,80.4,60.6,30.01,SSW,198,3.0,7.0,51,0.00,,,0.00,Wunderground v.1.15,2013-06-19 22:48:00,
2013-06-19 17:53:00,80.6,59.7,30.01,South,191,3.0,5.0,49,0.00,,,0.00,Wunderground v.1.15,2013-06-19 22:53:00,
2013-06-19 17:59:00,80.9,59.9,30.01,South,187,2.0,5.0,49,0.00,,,0.00,Wunderground v.1.15,2013-06-19 22:59:00,
2013-06-19 18:05:00,80.5,60.1,30.02,East,87,2.0,2.0,50,0.00,,,0.00,Wunderground v.1.15,2013-06-19 23:05:00,
2013-06-19 18:11:00,80.0,59.1,30.02,East,89,2.0,3.0,49,0.00,,,0.00,Wunderground v.1.15,2013-06-19 23:11:00,
2013-06-19 18:16:00,79.8,58.9,30.02,East,89,3.0,5.0,49,0.00,,,0.00,Wunderground v.1.15,2013-06-19 23:16:00,
2013-06-19 18:22:00,79.6,59.9,30.02,East,89,3.0,5.0,51,0.00,,,0.00,Wunderground v.1.15,2013-06-19 23:22:00,
2013-06-19 18:28:00,79.1,58.3,30.02,East,89,2.0,5.0,49,0.00,,,0.00,Wunderground v.1.15,2013-06-19 23:28:00,
2013-06-19 18:33:00,79.1,60.5,30.02,East,89,1.0,2.0,53,0.00,,,0.00,Wunderground v.1.15,2013-06-19 23:33:00,
2013-06-19 18:39:00,79.2,59.0,30.02,East,89,2.0,3.0,50,0.00,,,0.00,Wunderground v.1.15,2013-06-19 23:39:00,
2013-06-19 18:45:00,79.3,58.5,30.02,East,89,2.0,2.0,49,0.00,,,0.00,Wunderground v.1.15,2013-06-19 23:45:00,
2013-06-19 18:51:00,79.1,60.0,30.02,East,89,2.0,5.0,52,0.00,,,0.00,Wunderground v.1.15,2013-06-19 23:51:00,
2013-06-19 18:56:00,78.8,59.7,30.02,East,89,2.0,5.0,52,0.00,,,0.00,Wunderground v.1.15,2013-06-19 23:56:00,
2013-06-19 19:02:00,78.7,59.6,30.02,East,89,1.0,1.0,52,0.00,,,0.00,Wunderground v.1.15,2013-06-20 00:02:00,
2013-06-19 19:08:00,78.7,60.7,30.02,East,89,0.0,1.0,54,0.00,,,0.00,Wunderground v.1.15,2013-06-20 00:08:00,
2013-06-19 19:13:00,78.6,59.0,30.02,East,89,0.0,0.0,51,0.00,,,0.00,Wunderground v.1.15,2013-06-20 00:13:00,
2013-06-19 19:19:00,78.6,63.1,30.02,East,89,0.0,1.0,59,0.00,,,0.00,Wunderground v.1.15,2013-06-20 00:19:00,
2013-06-19 19:25:00,78.4,59.9,30.02,East,89,1.0,1.0,53,0.00,,,0.00,Wunderground v.1.15,2013-06-20 00:25:00,
2013-06-19 19:30:00,78.4,59.3,30.02,East,89,0.0,0.0,52,0.00,,,0.00,Wunderground v.1.15,2013-06-20 00:30:00,
2013-06-19 19:36:00,78.4,62.4,30.02,East,89,0.0,1.0,58,0.00,,,0.00,Wunderground v.1.15,2013-06-20 00:36:00,
2013-06-19 19:42:00,78.2,63.6,30.02,East,89,0.0,1.0,61,0.00,,,0.00,Wunderground v.1.15,2013-06-20 00:42:00,
2013-06-19 19:47:00,77.8,62.8,30.02,East,89,0.0,1.0,60,0.00,,,0.00,Wunderground v.1.15,2013-06-20 00:47:00,
2013-06-19 19:53:00,77.4,61.5,30.02,East,89,0.0,1.0,58,0.00,,,0.00,Wunderground v.1.15,2013-06-20 00:53:00,
2013-06-19 19:59:00,76.9,61.5,30.02,East,89,0.0,1.0,59,0.00,,,0.00,Wunderground v.1.15,2013-06-20 00:59:00,
2013-06-19 20:04:00,76.3,60.9,30.02,East,89,1.0,1.0,59,0.00,,,0.00,Wunderground v.1.15,2013-06-20 01:04:00,
2013-06-19 20:10:00,75.8,59.5,30.02,East,89,1.0,1.0,57,0.00,,,0.00,Wunderground v.1.15,2013-06-20 01:10:00,
2013-06-19 20:16:00,75.4,59.1,30.02,East,89,1.0,1.0,57,0.00,,,0.00,Wunderground v.1.15,2013-06-20 01:16:00,
2013-06-19 20:21:00,75.1,58.8,30.02,East,89,0.0,0.0,57,0.00,,,0.00,Wunderground v.1.15,2013-06-20 01:21:00,
2013-06-19 20:27:00,74.8,59.0,30.02,East,89,0.0,1.0,58,0.00,,,0.00,Wunderground v.1.15,2013-06-20 01:27:00,
2013-06-19 20:32:00,74.5,58.8,30.02,East,89,0.0,1.0,58,0.00,,,0.00,Wunderground v.1.15,2013-06-20 01:32:00,
2013-06-19 20:38:00,74.3,58.6,30.01,East,89,0.0,1.0,58,0.00,,,0.00,Wunderground v.1.15,2013-06-20 01:38:00,
2013-06-19 20:44:00,74.1,58.9,30.01,East,89,0.0,1.0,59,0.00,,,0.00,Wunderground v.1.15,2013-06-20 01:44:00,
2013-06-19 20:50:00,73.9,59.1,30.02,East,89,2.0,3.0,60,0.00,,,0.00,Wunderground v.1.15,2013-06-20 01:50:00,
2013-06-19 20:56:00,73.5,59.2,30.02,East,89,3.0,6.0,61,0.00,,,0.00,Wunderground v.1.15,2013-06-20 01:56:00,
2013-06-19 21:01:00,73.2,59.4,30.02,East,89,3.0,3.0,62,0.00,,,0.00,Wunderground v.1.15,2013-06-20 02:01:00,
2013-06-19 21:07:00,72.8,59.5,30.02,East,89,3.0,5.0,63,0.00,,,0.00,Wunderground v.1.15,2013-06-20 02:07:00,
2013-06-19 21:13:00,72.4,59.5,30.02,East,89,2.0,3.0,64,0.00,,,0.00,Wunderground v.1.15,2013-06-20 02:13:00,
2013-06-19 21:19:00,72.2,59.3,30.02,East,89,2.0,3.0,64,0.00,,,0.00,Wunderground v.1.15,2013-06-20 02:19:00,
2013-06-19 21:24:00,72.2,59.3,30.02,East,89,2.0,6.0,64,0.00,,,0.00,Wunderground v.1.15,2013-06-20 02:24:00,
2013-06-19 21:30:00,72.1,59.2,30.03,East,89,3.0,5.0,64,0.00,,,0.00,Wunderground v.1.15,2013-06-20 02:30:00,
2013-06-19 21:35:00,71.9,59.5,30.03,East,89,2.0,5.0,65,0.00,,,0.00,Wunderground v.1.15,2013-06-20 02:35:00,
2013-06-19 21:41:00,71.7,59.3,30.03,East,89,2.0,3.0,65,0.00,,,0.00,Wunderground v.1.15,2013-06-20 02:41:00,
2013-06-19 21:46:00,71.4,59.4,30.03,East,89,2.0,3.0,66,0.00,,,0.00,Wunderground v.1.15,2013-06-20 02:46:00,
2013-06-19 21:52:00,71.1,59.2,30.03,East,89,2.0,2.0,66,0.00,,,0.00,Wunderground v.1.15,2013-06-20 02:52:00,
2013-06-19 21:58:00,71.0,59.5,30.03,East,89,2.0,5.0,67,0.00,,,0.00,Wunderground v.1.15,2013-06-20 02:58:00,
2013-06-19 22:03:00,70.8,59.3,30.03,East,89,2.0,6.0,67,0.00,,,0.00,Wunderground v.1.15,2013-06-20 03:03:00,
2013-06-19 22:10:00,70.7,59.2,30.04,East,85,6.0,7.0,67,0.00,,,0.00,Wunderground v.1.15,2013-06-20 03:10:00,
2013-06-19 22:15:00,70.5,59.0,30.04,East,87,8.0,15.0,67,0.00,,,0.00,Wunderground v.1.15,2013-06-20 03:15:00,
2013-06-19 22:20:00,70.1,58.6,30.04,ESE,103,8.0,8.0,67,0.00,,,0.00,Wunderground v.1.15,2013-06-20 03:20:00,
2013-06-19 22:26:00,69.9,58.4,30.04,East,84,6.0,8.0,67,0.00,,,0.00,Wunderground v.1.15,2013-06-20 03:26:00,
2013-06-19 22:31:00,69.6,57.7,30.04,ESE,111,5.0,5.0,66,0.00,,,0.00,Wunderground v.1.15,2013-06-20 03:31:00,
2013-06-19 22:37:00,69.5,57.6,30.05,East,101,4.0,5.0,66,0.00,,,0.00,Wunderground v.1.15,2013-06-20 03:37:00,
2013-06-19 22:42:00,69.4,57.1,30.05,East,90,4.0,9.0,65,0.00,,,0.00,Wunderground v.1.15,2013-06-20 03:42:00,
2013-06-19 22:48:00,69.2,56.9,30.05,East,97,5.0,9.0,65,0.00,,,0.00,Wunderground v.1.15,2013-06-20 03:48:00,
2013-06-19 22:53:00,68.9,56.6,30.05,East,96,4.0,5.0,65,0.00,,,0.00,Wunderground v.1.15,2013-06-20 03:53:00,
2013-06-19 22:59:00,68.8,56.6,30.05,SE,131,4.0,7.0,65,0.00,,,0.00,Wunderground v.1.15,2013-06-20 03:59:00,
2013-06-19 23:01:00,68.7,56.5,30.06,ESE,121,4.0,4.0,65,0.00,,,0.00,Wunderground v.1.15,2013-06-20 04:01:00,
2013-06-19 23:02:00,68.7,56.5,30.06,ESE,103,3.0,4.0,65,0.00,,,0.00,Wunderground v.1.15,2013-06-20 04:02:00,
2013-06-19 23:07:00,68.5,56.3,30.06,East,98,3.0,6.0,65,0.00,,,0.00,Wunderground v.1.15,2013-06-20 04:07:00,
2013-06-19 23:09:00,68.4,56.2,30.06,East,94,3.0,6.0,65,0.00,,,0.00,Wunderground v.1.15,2013-06-20 04:09:00,
2013-06-19 23:10:00,68.3,56.1,30.06,East,94,3.0,3.0,65,0.00,,,0.00,Wunderground v.1.15,2013-06-20 04:10:00,
2013-06-19 23:16:00,68.2,56.0,30.06,SE,140,3.0,3.0,65,0.00,,,0.00,Wunderground v.1.15,2013-06-20 04:16:00,
2013-06-19 23:22:00,68.1,55.9,30.06,ESE,123,2.0,3.0,65,0.00,,,0.00,Wunderground v.1.15,2013-06-20 04:22:00,
2013-06-19 23:27:00,67.9,56.1,30.06,ESE,117,2.0,3.0,66,0.00,,,0.00,Wunderground v.1.15,2013-06-20 04:27:00,
2013-06-19 23:33:00,67.7,55.9,30.06,East,90,2.0,2.0,66,0.00,,,0.00,Wunderground v.1.15,2013-06-20 04:33:00,
2013-06-19 23:38:00,67.5,55.7,30.06,SE,130,2.0,3.0,66,0.00,,,0.00,Wunderground v.1.15,2013-06-20 04:38:00,
2013-06-19 23:44:00,67.5,55.7,30.06,SE,136,2.0,2.0,66,0.00,,,0.00,Wunderground v.1.15,2013-06-20 04:44:00,
2013-06-19 23:49:00,67.4,55.6,30.06,SE,135,2.0,6.0,66,0.00,,,0.00,Wunderground v.1.15,2013-06-20 04:49:00,
2013-06-19 23:55:00,67.4,55.6,30.06,SE,125,2.0,4.0,66,0.00,,,0.00,Wunderground v.1.15,2013-06-20 04:55:00,